Flag for Germany Weather past 2 weeks in Demmin, Mecklenburg-Western Pomerania, Germany

Now
73 °F

Passing clouds.


Feels Like: 77 °F
Forecast: 60 / 78 °F
Wind: 3 mph from Southeast

Location: Greifswald

Current Time: Aug 4, 2015 at 9:42:54 AM

Latest Report: Aug 4, 2015 at 9:00 AM


Visibility: 13 mi

Pressure: 29.98 "Hg

Humidity: 59%

Dew point: 58 °F

Location of DemminLocation

Historic Weather in Demmin — Graph

°F

Demmin temperature yesterday

Maximum temperature yesterday: 74 °F (at 6:00 PM)
Minimum temperature yesterday: 51 °F (at 6:00 AM)
Average temperature yesterday: 64 °F

Past Weeks' High & Low Weather Summary

 TemperatureHumidityPressure
High81 °F (Aug 2, 3:00 PM)100% (Aug 2, 7:00 AM)30.16 "Hg (Aug 2, 7:00 AM)
Low46 °F (Aug 1, 4:00 AM)31% (Aug 2, 3:00 PM)29.44 "Hg (Jul 25, 6:00 PM)
Average62 °F73%29.85 "Hg
* Reported Jul 20 8:00 AM — Aug 4 8:00 AM, Demmin, Weather by CustomWeather, © 2015

Note: Actual official high and low records may vary slightly from our data, if they occured in-between our weather recording intervals... More about our weather records

Advertising

Demmin weather history for previous 24 hours

 ConditionsComfort  
Time TempWeatherWind HumidityBarometerVisibility
8:00 AM
Tue, Aug 4
67 °FPassing clouds.1 mph78%29.99 "Hg7 mi
7:00 AM60 °FPassing clouds.1 mph94%30.00 "Hg6 mi
6:00 AM58 °FPassing clouds.1 mph95%30.01 "Hg5 mi
4:00 AM59 °FPassing clouds.1 mph94%30.03 "Hg8 mi
3:00 AM60 °FPassing clouds.1 mph91%30.04 "Hg10 mi
2:00 AM62 °FPassing clouds.2 mph85%30.06 "Hg12 mi
1:00 AM62 °FClear.2 mph82%30.07 "Hg16 mi
10:00 PM
Mon, Aug 3
64 °FPassing clouds.5 mph81%30.09 "Hg12 mi
9:00 PM66 °FPassing clouds.5 mph72%30.08 "Hg16 mi
8:00 PM70 °FPassing clouds.5 mph62%30.09 "Hg19 mi
7:00 PM73 °FPassing clouds.6 mph54%30.09 "Hg28 mi
6:00 PM74 °FPassing clouds.6 mph49%30.10 "Hg28 mi
5:00 PM73 °FPassing clouds.7 mph65%30.11 "Hg19 mi
4:00 PM72 °FPassing clouds.8 mph64%30.12 "Hg19 mi
3:00 PM73 °FPassing clouds.7 mph63%30.13 "Hg19 mi
2:00 PM73 °FPassing clouds.7 mph66%30.13 "Hg11 mi
1:00 PM71 °FPassing clouds.6 mph66%30.15 "Hg14 mi
12:00 PM70 °FScattered clouds.7 mph66%30.15 "Hg15 mi
11:00 AM69 °FPartly sunny.5 mph69%30.16 "Hg19 mi
10:00 AM68 °FScattered clouds.3 mph69%30.15 "Hg19 mi
9:00 AM66 °FScattered clouds.2 mph76%30.15 "Hg17 mi
Weather by CustomWeather, © 2015

See weather overviewHow to use our weather pages